Showing default

OPS 8068, 1580

Orbit data source: Space-Track

OPS 8068, 1580 is a payload satellite owned by USAF SSD (US) in SSO that was launched on Fri, 10 Sep 1965 UTC via a THOR BURNER 1 launch vehicle from the Air Force Western Test Range (AFWTR). Payload-class satellites include a variety of spacecraft equipped with specific instruments for various scientific and technological missions. These include communications satellites like Starlink; space stations such as the ISS; scientific satellites like the Hubble; Earth observation satellites from companies like Planet Labs, Umbra, and HawkEye 360; GPS; miniature CubeSats for education and research; and military/defense satellites.

Loading next visibility...
Identifier
1580, 1965-072A
Orbit
SSO
Country
Flag of USUS
Related business
Manufacturer
RCA/East Windsor
Mission
Spacecraft
Bus & Motor
P35, Unknown motor
Mass
72 kg wet, 72 kg dry
Launch date (UTC)
1965-09-10 (60 years ago)
Launch vehicle
THOR BURNER 1
Launch site
Air Force Western Test Range (AFWTR)
Object type
Payload
Rocket body
Debris
Shape & HBR
Unknown
Radar Cross Section
Medium (>0.1 m² and <1 m²)

Expand to show TLE details & history
Last TLE update: 1 day ago

TLE from 1 day ago
0 OPS 8068
1  1580U 65072A   25306.47039199  .00000256  00000-0  90034-4 0  9995
2  1580  98.3919 105.6500 0229385 355.9349   3.9964 14.29438228100622
Epoch: 2025-11-02T11:17Z
TLE epoch observation values (Epoch: 2025-11-02T11:17:21.867Z)
Latitude
-0.0001°
Longitude
-105.67675°
Altitude
632.425 km
Speed
7.628 km/s
True Right ascension
07h 02m 36s
True Declination
0° 00' 00"
Sunlit
Object was in daylight at epoch
Visualization orbit readout
Latitude
Unknown
Longitude
Unknown
Altitude
Unknown
Speed
Unknown
Apparent Right ascension
Unknown
Apparent Declination
Unknown
Sunlit
N/A
Visualization observer readout
Local Sidereal Time
07:35:11
Azimuth
Unknown
Elevation
Unknown
Doppler factor
Unknown
Orbital elements
Apogee altitude
955.181 km
Perigee altitude
626.295 km
Semi-major axis
7,168.875 km
Eccentricity
0.02294
Inclination
98.3919°
RAAN
105.65°
Arg. of periapsis
355.9349°
True anomaly
4.18498°
Mean anomaly
3.9964°
Eccentric anomaly
4.09014°
Mean motion
3.57575 °/min
Orbital period
100.68 mins
BSTAR
0.000090034
Loading maneuver chart data...
Computing Atmospheric mass density...
Loading historical data...
Loading historical data...
Loading historical data...
Loading historical data...
Loading historical data...
Loading historical data...
Loading historical data...

Documentation

Showing up to 5 results
|